Regional Weather Roundup
Issued by NWS Albany, NY

Home | Current Version | Previous Version | Graphics & Text | Print | Product List | Glossary Off
Versions: 1 2 3 4 5 6 7 8 9 10 11 12 13 14 15 16 17 18 19 20 21 22 23 24 25 26 27 28 29 30 31 32 33 34 35 36 37 38 39 40 41 42 43 44 45 46 47 48 49 50

000
ASUS41 KALY 212110
RWRALY

NEW YORK STATE HOURLY WEATHER ROUNDUP
NATIONAL WEATHER SERVICE ALBANY NY
500 PM EDT THU MAY 21 2015

NOTE: "FAIR" INDICATES FEW OR NO CLOUDS BELOW 12,000 FEET WITH NO
SIGNIFICANT WEATHER AND/OR NO OBSTRUCTIONS TO VISIBILITY.

NYZ032-033-038>043-046>054-057>066-NYZ062>081-212200-
EAST


CITY           SKY/WX    TMP DP  RH WIND       PRES   REMARKS
ALBANY         PTSUNNY   64  36  35 S8        29.86S
GLENS FALLS    PTSUNNY   66  36  32 SW10G18   29.82S
POUGHKEEPSIE   CLOUDY    65  34  31 W8        29.88S
NEWBURGH       PTSUNNY   63  37  39 W12       29.89F
MONTGOMERY     CLOUDY    63  36  36 S9        29.88F
WHITE PLAINS   PTSUNNY   58  38  47 S7G18     29.91F
ISLIP          LGT RAIN  54  43  66 SW9       29.92F
NEW YORK CITY  CLOUDY    59  41  51 S10       29.92F
CENTRAL PARK   PTSUNNY   60  41  49 MISG      29.94F
$$

NYZ005>009-017-018-044>046-055-056-212200-
CENTRAL


CITY           SKY/WX    TMP DP  RH WIND       PRES   REMARKS
FULTON         SUNNY     62  30  29 W8G17     29.87F
SYRACUSE       PTSUNNY   63  31  30 W5        29.86F
ROME           SUNNY     63  33  32 W13       29.87F
ELMIRA         CLOUDY    59  39  47 S7        29.87F
BINGHAMTON     CLOUDY    55  37  50 VRB6      29.89F
MONTICELLO     CLOUDY    55  39  54 NW7       29.90F
$$

NYZ026>034-041>043-212200-
NORTH


CITY           SKY/WX    TMP DP  RH WIND       PRES   REMARKS
WATERTOWN      SUNNY     60  29  30 SW10G22   29.85F
FORT DRUM      NOT AVBL
MASSENA        SUNNY     65  33  30 SW17G24   29.80F
SARANAC LAKE   PTSUNNY   61  29  29 SW12G18   29.80S
PLATTSBURGH    CLOUDY    64  38  38 S10       29.77F
$$

NYZ001>004-010>016-019>021-212200-
WEST


CITY           SKY/WX    TMP DP  RH WIND       PRES   REMARKS
NIAGARA FALLS  PTSUNNY   59  33  37 SW17      29.88S
BUFFALO        PTSUNNY   57  32  38 SW17G24   29.89F
DUNKIRK        LGT RAIN  57  34  41 SW10      29.92S
JAMESTOWN      PTSUNNY   55  28  35 W9        29.92S
WELLSVILLE     CLOUDY    54  37  52 W7        29.89F
ROCHESTER      PTSUNNY   63  34  33 N7        29.87F
PENN YAN       PTSUNNY   60  38  43 S5        29.87F
$$

             KEY
       WCI = WIND CHILL INDEX
       VSB = VISIBILITY
       HX  = HEAT INDEX
$$


USA.gov is the U.S. government's official web portal to all federal, state and local government web resources and services.